Flag for U.S.A. Weather past 2 weeks in Howland Island, U.S.A.

Now
81 °F

Passing clouds.


Feels Like: 87 °F
Forecast: 82 / 85 °F
Wind: 12 mph from East

Location: Funafuti

Current Time: Sep 18, 2014 at 1:49:32 AM

Latest Report: Sep 18, 2014 at 1:00 AM


Visibility: N/A

Pressure: 29.86 "Hg

Humidity: 89%

Dew point: 77 °F

Location of Howland IslandLocation

Historic Weather in Howland Island — Graph

°F

Howland Island temperature yesterday

Maximum temperature yesterday: 88 °F (at 1:00 PM)
Minimum temperature yesterday: 81 °F (at 2:00 AM)
Average temperature yesterday: 84 °F

Past Weeks' High & Low Weather Summary

 TemperatureHumidityPressure
High90 °F (Sep 6, 1:00 PM)100% (Sep 4, 10:00 AM)29.95 "Hg (Sep 4, 10:00 AM)
Low77 °F (Sep 4, 10:00 AM)66% (Sep 3, 12:00 PM)29.74 "Hg (Sep 3, 4:00 PM)
Average84 °F81%29.82 "Hg
* Reported Midnight between Sep 2 and Sep 3 — Midnight between Sep 17 and Sep 18, Howland Island, Weather by CustomWeather, © 2014

Note: Actual official high and low records may vary slightly from our data, if they occured in-between our weather recording intervals... More about our weather records

Advertising

Howland Island weather history for previous 24 hours

 ConditionsComfort  
Time TempWeatherWind HumidityBarometerVisibility
12:00 AM
Sep 18
82 °FWarm.3 mph84%29.86 "HgN/A
9:00 PM
Sep 17
84 °FPassing clouds.12 mph79%29.89 "HgN/A
8:00 PM84 °FPartly cloudy.10 mph79%29.86 "HgN/A
7:00 PM84 °FPartly cloudy.9 mph84%29.86 "HgN/A
6:00 PM84 °FScattered showers. Partly cloudy.12 mph84%29.83 "HgN/A
5:00 PM86 °FScattered showers. Broken clouds.9 mph79%29.80 "HgN/A
4:00 PM86 °FBroken clouds.10 mph79%29.80 "HgN/A
3:00 PM86 °FBroken clouds.9 mph79%29.80 "HgN/A
2:00 PM86 °FScattered showers. Broken clouds.12 mph75%29.83 "HgN/A
1:00 PM88 °FScattered showers. Broken clouds.14 mph70%29.83 "HgN/A
12:00 PM84 °FScattered showers. Broken clouds.13 mph84%29.86 "HgN/A
11:00 AM84 °FScattered showers. Broken clouds.13 mph84%29.89 "HgN/A
10:00 AM84 °FScattered showers. Broken clouds.10 mph79%29.89 "HgN/A
9:00 AM84 °FScattered showers. Broken clouds.12 mph84%29.89 "HgN/A
8:00 AM86 °FScattered showers. Cloudy.7 mph79%29.86 "HgN/A
7:00 AM84 °FScattered showers. Broken clouds.7 mph84%29.86 "HgN/A
6:00 AM82 °FScattered showers. Partly sunny.5 mph84%29.83 "HgN/A
5:00 AM82 °FScattered showers. Mostly cloudy.15 mph89%29.83 "HgN/A
4:00 AM81 °FPartly cloudy.14 mph89%29.83 "HgN/A
3:00 AM82 °FScattered showers. Partly cloudy.14 mph89%29.80 "HgN/A
2:00 AM81 °FSprinkles. Mostly cloudy.7 mph94%29.83 "HgN/A
1:00 AM82 °FScattered showers. Partly cloudy.10 mph89%29.83 "HgN/A
Weather by CustomWeather, © 2014

See weather overviewHow to use our weather pages